Year,Month,Day,Hour,Minute,Value (Times are PST for windspeed in km/hr)
2010,10,10,00,00,0.50
2010,10,10,00,01,1.00
2010,10,10,00,02,0.80
2010,10,10,00,03,0.00
2010,10,10,00,04,0.00
2010,10,10,00,05,0.00
2010,10,10,00,06,0.30
2010,10,10,00,07,1.60
2010,10,10,00,08,2.60
2010,10,10,00,09,0.30
2010,10,10,00,10,0.00
2010,10,10,00,11,0.10
2010,10,10,00,12,0.00
2010,10,10,00,13,0.00
2010,10,10,00,14,0.00
2010,10,10,00,15,0.00
2010,10,10,00,16,0.00
2010,10,10,00,17,0.20
2010,10,10,00,18,0.10
2010,10,10,00,19,0.00
2010,10,10,00,20,0.00
2010,10,10,00,21,0.00
2010,10,10,00,22,0.00
2010,10,10,00,23,0.00
2010,10,10,00,24,0.00
2010,10,10,00,25,0.00
2010,10,10,00,26,0.10
2010,10,10,00,27,0.00
2010,10,10,00,28,0.00
2010,10,10,00,29,0.20
2010,10,10,00,30,1.60
2010,10,10,00,31,1.00
2010,10,10,00,32,0.20
2010,10,10,00,33,0.00
2010,10,10,00,34,0.00
2010,10,10,00,35,0.00
2010,10,10,00,36,0.00
2010,10,10,00,37,0.00
2010,10,10,00,38,0.10
2010,10,10,00,39,0.40
2010,10,10,00,40,0.10
2010,10,10,00,41,0.10
2010,10,10,00,42,0.20
2010,10,10,00,43,0.00
2010,10,10,00,44,0.00
2010,10,10,00,45,0.00
2010,10,10,00,46,0.00
2010,10,10,00,47,0.00
2010,10,10,00,48,0.00
2010,10,10,00,49,0.00
2010,10,10,00,50,1.10
2010,10,10,00,51,2.80
2010,10,10,00,52,1.70
2010,10,10,00,53,1.50
2010,10,10,00,54,2.00
2010,10,10,00,55,1.20
2010,10,10,00,56,2.10
2010,10,10,00,57,1.50
2010,10,10,00,58,1.70
2010,10,10,00,59,0.60
2010,10,10,01,00,1.20
2010,10,10,01,01,0.00
2010,10,10,01,02,0.10
2010,10,10,01,03,1.30
2010,10,10,01,04,1.00
2010,10,10,01,05,0.20
2010,10,10,01,06,1.70
2010,10,10,01,07,1.10
2010,10,10,01,08,0.00
2010,10,10,01,09,1.60
2010,10,10,01,10,1.80
2010,10,10,01,11,1.00
2010,10,10,01,12,2.80
2010,10,10,01,13,2.40
2010,10,10,01,14,1.70
2010,10,10,01,15,0.30
2010,10,10,01,16,0.00
2010,10,10,01,17,2.10
2010,10,10,01,18,5.70
2010,10,10,01,19,4.60
2010,10,10,01,20,1.50
2010,10,10,01,21,4.10
2010,10,10,01,22,6.50
2010,10,10,01,23,4.80
2010,10,10,01,24,7.20
2010,10,10,01,25,5.50
2010,10,10,01,26,1.50
2010,10,10,01,27,2.40
2010,10,10,01,28,5.90
2010,10,10,01,29,7.00
2010,10,10,01,30,5.30
2010,10,10,01,31,0.90
2010,10,10,01,32,3.80
2010,10,10,01,33,5.00
2010,10,10,01,34,5.60
2010,10,10,01,35,2.30
2010,10,10,01,36,9.90
2010,10,10,01,37,4.20
2010,10,10,01,38,1.30
2010,10,10,01,39,7.10
2010,10,10,01,40,1.20
2010,10,10,01,41,3.40
2010,10,10,01,42,4.60
2010,10,10,01,43,4.20
2010,10,10,01,44,6.50
2010,10,10,01,45,8.10
2010,10,10,01,46,7.10
2010,10,10,01,47,5.00
2010,10,10,01,48,8.70
2010,10,10,01,49,7.20
2010,10,10,01,50,9.00
2010,10,10,01,51,6.70
2010,10,10,01,52,7.10
2010,10,10,01,53,5.60
2010,10,10,01,54,10.50
2010,10,10,01,55,10.40
2010,10,10,01,56,13.30
2010,10,10,01,57,10.80
2010,10,10,01,58,9.40
2010,10,10,01,59,11.90
2010,10,10,02,00,12.40
2010,10,10,02,01,8.30
2010,10,10,02,02,12.80
2010,10,10,02,03,10.40
2010,10,10,02,04,9.20
2010,10,10,02,05,10.90
2010,10,10,02,06,14.00
2010,10,10,02,07,10.20
2010,10,10,02,08,8.50
2010,10,10,02,09,14.60
2010,10,10,02,10,11.00
2010,10,10,02,11,9.10
2010,10,10,02,12,11.30
2010,10,10,02,13,9.80
2010,10,10,02,14,13.50
2010,10,10,02,15,12.90
2010,10,10,02,16,11.30
2010,10,10,02,17,9.40
2010,10,10,02,18,9.90
2010,10,10,02,19,10.60
2010,10,10,02,20,12.30
2010,10,10,02,21,13.40
2010,10,10,02,22,10.20
2010,10,10,02,23,10.20
2010,10,10,02,24,8.00
2010,10,10,02,25,10.30
2010,10,10,02,26,16.20
2010,10,10,02,27,8.10
2010,10,10,02,28,10.90
2010,10,10,02,29,12.20
2010,10,10,02,30,12.70
2010,10,10,02,31,7.30
2010,10,10,02,32,12.00
2010,10,10,02,33,9.70
2010,10,10,02,34,8.60
2010,10,10,02,35,7.90
2010,10,10,02,36,14.10
2010,10,10,02,37,11.10
2010,10,10,02,38,16.30
2010,10,10,02,39,7.70
2010,10,10,02,40,10.20
2010,10,10,02,41,10.10
2010,10,10,02,42,7.20
2010,10,10,02,43,4.70
2010,10,10,02,44,8.50
2010,10,10,02,45,7.10
2010,10,10,02,46,9.70
2010,10,10,02,47,8.20
2010,10,10,02,48,5.80
2010,10,10,02,49,4.10
2010,10,10,02,50,8.70
2010,10,10,02,51,11.10
2010,10,10,02,52,7.30
2010,10,10,02,53,8.50
2010,10,10,02,54,12.00
2010,10,10,02,55,12.00
2010,10,10,02,56,8.80
2010,10,10,02,57,15.60
2010,10,10,02,58,19.90
2010,10,10,02,59,16.80
2010,10,10,03,00,14.00
2010,10,10,03,01,12.70
2010,10,10,03,02,14.90
2010,10,10,03,03,18.10
2010,10,10,03,04,13.10
2010,10,10,03,05,11.30
2010,10,10,03,06,20.10
2010,10,10,03,07,17.80
2010,10,10,03,08,15.00
2010,10,10,03,09,20.60
2010,10,10,03,10,17.50
2010,10,10,03,11,13.90
2010,10,10,03,12,13.90
2010,10,10,03,13,22.10
2010,10,10,03,14,23.70
2010,10,10,03,15,14.60
2010,10,10,03,16,17.50
2010,10,10,03,17,14.30
2010,10,10,03,18,20.50
2010,10,10,03,19,17.30
2010,10,10,03,20,25.70
2010,10,10,03,21,24.20
2010,10,10,03,22,25.20
2010,10,10,03,23,20.50
2010,10,10,03,24,18.20
2010,10,10,03,25,18.80
2010,10,10,03,26,23.50
2010,10,10,03,27,21.00
2010,10,10,03,28,22.70
2010,10,10,03,29,21.80
2010,10,10,03,30,18.70
2010,10,10,03,31,22.10
2010,10,10,03,32,19.40
2010,10,10,03,33,21.30
2010,10,10,03,34,20.20
2010,10,10,03,35,26.10
2010,10,10,03,36,25.90
2010,10,10,03,37,22.10
2010,10,10,03,38,26.20
2010,10,10,03,39,22.90
2010,10,10,03,40,23.80
2010,10,10,03,41,24.20
2010,10,10,03,42,30.20
2010,10,10,03,43,28.40
2010,10,10,03,44,37.30
2010,10,10,03,45,30.80
2010,10,10,03,46,25.10
2010,10,10,03,47,25.20
2010,10,10,03,48,18.40
2010,10,10,03,49,23.00
2010,10,10,03,50,19.10
2010,10,10,03,51,21.90
2010,10,10,03,52,17.10
2010,10,10,03,53,20.50
2010,10,10,03,54,20.30
2010,10,10,03,55,19.50
2010,10,10,03,56,17.50
2010,10,10,03,57,20.30
2010,10,10,03,58,20.60
2010,10,10,03,59,22.20
2010,10,10,04,00,23.30
2010,10,10,04,01,16.00
2010,10,10,04,02,15.40
2010,10,10,04,03,19.00
2010,10,10,04,04,20.60
2010,10,10,04,05,23.40
2010,10,10,04,06,17.50
2010,10,10,04,07,18.10
2010,10,10,04,08,18.10
2010,10,10,04,09,18.70
2010,10,10,04,10,16.80
2010,10,10,04,11,13.90
2010,10,10,04,12,15.50
2010,10,10,04,13,13.80
2010,10,10,04,14,17.10
2010,10,10,04,15,14.50
2010,10,10,04,16,18.30
2010,10,10,04,17,20.70
2010,10,10,04,18,16.50
2010,10,10,04,19,17.90
2010,10,10,04,20,14.40
2010,10,10,04,21,19.90
2010,10,10,04,22,15.30
2010,10,10,04,23,14.10
2010,10,10,04,24,18.20
2010,10,10,04,25,14.90
2010,10,10,04,26,20.40
2010,10,10,04,27,16.50
2010,10,10,04,28,12.30
2010,10,10,04,29,12.90
2010,10,10,04,30,17.10
2010,10,10,04,31,15.60
2010,10,10,04,32,10.00
2010,10,10,04,33,7.50
2010,10,10,04,34,16.10
2010,10,10,04,35,13.70
2010,10,10,04,36,12.30
2010,10,10,04,37,14.70
2010,10,10,04,38,13.60
2010,10,10,04,39,10.30
2010,10,10,04,40,9.10
2010,10,10,04,41,9.10
2010,10,10,04,42,11.90
2010,10,10,04,43,14.10
2010,10,10,04,44,9.80
2010,10,10,04,45,13.30
2010,10,10,04,46,7.00
2010,10,10,04,47,9.40
2010,10,10,04,48,10.40
2010,10,10,04,49,9.60
2010,10,10,04,50,9.40
2010,10,10,04,51,7.30
2010,10,10,04,52,12.80
2010,10,10,04,53,12.00
2010,10,10,04,54,10.30
2010,10,10,04,55,7.30
2010,10,10,04,56,13.50
2010,10,10,04,57,11.50
2010,10,10,04,58,14.50
2010,10,10,04,59,14.30
2010,10,10,05,00,10.30
2010,10,10,05,01,12.60
2010,10,10,05,02,16.80
2010,10,10,05,03,12.70
2010,10,10,05,04,11.70
2010,10,10,05,05,14.30
2010,10,10,05,06,11.40
2010,10,10,05,07,14.00
2010,10,10,05,08,10.70
2010,10,10,05,09,8.40
2010,10,10,05,10,8.80
2010,10,10,05,11,12.80
2010,10,10,05,12,11.90
2010,10,10,05,13,6.30
2010,10,10,05,14,12.00
2010,10,10,05,15,11.70
2010,10,10,05,16,8.00
2010,10,10,05,17,8.10
2010,10,10,05,18,13.30
2010,10,10,05,19,8.70
2010,10,10,05,20,11.20
2010,10,10,05,21,11.30
2010,10,10,05,22,11.10
2010,10,10,05,23,9.40
2010,10,10,05,24,15.60
2010,10,10,05,25,10.30
2010,10,10,05,26,11.90
2010,10,10,05,27,10.70
2010,10,10,05,28,8.10
2010,10,10,05,29,11.10
2010,10,10,05,30,8.70
2010,10,10,05,31,7.60
2010,10,10,05,32,8.90
2010,10,10,05,33,12.00
2010,10,10,05,34,12.70
2010,10,10,05,35,10.80
2010,10,10,05,36,9.60
2010,10,10,05,37,8.70
2010,10,10,05,38,8.20
2010,10,10,05,39,8.00
2010,10,10,05,40,7.90
2010,10,10,05,41,8.80
2010,10,10,05,42,8.30
2010,10,10,05,43,7.10
2010,10,10,05,44,6.50
2010,10,10,05,45,5.80
2010,10,10,05,46,6.30
2010,10,10,05,47,9.70
2010,10,10,05,48,7.10
2010,10,10,05,49,7.40
2010,10,10,05,50,5.50
2010,10,10,05,51,9.20
2010,10,10,05,52,7.20
2010,10,10,05,53,5.50
2010,10,10,05,54,11.00
2010,10,10,05,55,5.00
2010,10,10,05,56,9.50
2010,10,10,05,57,7.70
2010,10,10,05,58,8.00
2010,10,10,05,59,6.20
2010,10,10,06,00,5.20
2010,10,10,06,01,7.60
2010,10,10,06,02,10.40
2010,10,10,06,03,9.90
2010,10,10,06,04,8.90
2010,10,10,06,05,6.80
2010,10,10,06,06,8.20
2010,10,10,06,07,6.30
2010,10,10,06,08,4.40
2010,10,10,06,09,6.00
2010,10,10,06,10,4.30
2010,10,10,06,11,6.80
2010,10,10,06,12,5.80
2010,10,10,06,13,3.10
2010,10,10,06,14,2.00
2010,10,10,06,15,5.80
2010,10,10,06,16,8.20
2010,10,10,06,17,6.30
2010,10,10,06,18,4.60
2010,10,10,06,19,5.00
2010,10,10,06,20,1.80
2010,10,10,06,21,4.50
2010,10,10,06,22,1.20
2010,10,10,06,23,2.50
2010,10,10,06,24,8.90
2010,10,10,06,25,4.30
2010,10,10,06,26,4.60
2010,10,10,06,27,3.00
2010,10,10,06,28,4.30
2010,10,10,06,29,2.20
2010,10,10,06,30,5.40
2010,10,10,06,31,2.50
2010,10,10,06,32,1.80
2010,10,10,06,33,1.90
2010,10,10,06,34,4.60
2010,10,10,06,35,3.10
2010,10,10,06,36,5.90
2010,10,10,06,37,5.70
2010,10,10,06,38,4.70
2010,10,10,06,39,1.50
2010,10,10,06,40,2.40
2010,10,10,06,41,1.10
2010,10,10,06,42,3.50
2010,10,10,06,43,4.00
2010,10,10,06,44,4.40
2010,10,10,06,45,4.40
2010,10,10,06,46,2.60
2010,10,10,06,47,2.40
2010,10,10,06,48,2.50
2010,10,10,06,49,5.70
2010,10,10,06,50,3.60
2010,10,10,06,51,3.20
2010,10,10,06,52,1.10
2010,10,10,06,53,3.80
2010,10,10,06,54,5.20
2010,10,10,06,55,2.40
2010,10,10,06,56,3.90
2010,10,10,06,57,4.70
2010,10,10,06,58,3.00
2010,10,10,06,59,3.20
2010,10,10,07,00,1.00
2010,10,10,07,01,2.80
2010,10,10,07,02,4.40
2010,10,10,07,03,0.70
2010,10,10,07,04,3.50
2010,10,10,07,05,6.70
2010,10,10,07,06,3.20
2010,10,10,07,07,2.50
2010,10,10,07,08,5.70
2010,10,10,07,09,4.90
2010,10,10,07,10,7.80
2010,10,10,07,11,3.50
2010,10,10,07,12,1.80
2010,10,10,07,13,4.10
2010,10,10,07,14,3.30
2010,10,10,07,15,2.30
2010,10,10,07,16,1.80
2010,10,10,07,17,3.30
2010,10,10,07,18,3.70
2010,10,10,07,19,5.50
2010,10,10,07,20,5.00
2010,10,10,07,21,1.90
2010,10,10,07,22,1.50
2010,10,10,07,23,2.70
2010,10,10,07,24,2.80
2010,10,10,07,25,3.70
2010,10,10,07,26,1.10
2010,10,10,07,27,4.10
2010,10,10,07,28,1.20
2010,10,10,07,29,2.30
2010,10,10,07,30,2.80
2010,10,10,07,31,2.60
2010,10,10,07,32,0.10
2010,10,10,07,33,0.20
2010,10,10,07,34,4.40
2010,10,10,07,35,0.40
2010,10,10,07,36,2.80
2010,10,10,07,37,2.40
2010,10,10,07,38,3.00
2010,10,10,07,39,0.10
2010,10,10,07,40,1.10
2010,10,10,07,41,2.80
2010,10,10,07,42,4.70
2010,10,10,07,43,1.50
2010,10,10,07,44,3.50
2010,10,10,07,45,4.20
2010,10,10,07,46,1.70
2010,10,10,07,47,0.80
2010,10,10,07,48,2.40
2010,10,10,07,49,4.40
2010,10,10,07,50,4.40
2010,10,10,07,51,6.40
2010,10,10,07,52,7.10
2010,10,10,07,53,5.80
2010,10,10,07,54,4.50
2010,10,10,07,55,3.40
2010,10,10,07,56,1.00
2010,10,10,07,57,3.20
2010,10,10,07,58,6.20
2010,10,10,07,59,3.60
2010,10,10,08,00,8.10
2010,10,10,08,01,7.70
2010,10,10,08,02,8.70
2010,10,10,08,03,4.20
2010,10,10,08,04,4.50
2010,10,10,08,05,9.40
2010,10,10,08,06,11.90
2010,10,10,08,07,8.00
2010,10,10,08,08,5.30
2010,10,10,08,09,10.90
2010,10,10,08,10,5.70
2010,10,10,08,11,6.20
2010,10,10,08,12,6.00
2010,10,10,08,13,10.00
2010,10,10,08,14,6.20
2010,10,10,08,15,5.70
2010,10,10,08,16,7.10
2010,10,10,08,17,6.60
2010,10,10,08,18,5.00
2010,10,10,08,19,5.80
2010,10,10,08,20,8.90
2010,10,10,08,21,10.80
2010,10,10,08,22,9.70
2010,10,10,08,23,9.40
2010,10,10,08,24,10.90
2010,10,10,08,25,10.70
2010,10,10,08,26,9.50
2010,10,10,08,27,8.10
2010,10,10,08,28,9.80
2010,10,10,08,29,10.30
2010,10,10,08,30,6.40
2010,10,10,08,31,10.00
2010,10,10,08,32,6.70
2010,10,10,08,33,8.70
2010,10,10,08,34,6.90
2010,10,10,08,35,9.50
2010,10,10,08,36,9.40
2010,10,10,08,37,9.90
2010,10,10,08,38,7.40
2010,10,10,08,39,7.10
2010,10,10,08,40,5.40
2010,10,10,08,41,8.00
2010,10,10,08,42,8.30
2010,10,10,08,43,5.30
2010,10,10,08,44,4.60
2010,10,10,08,45,10.70
2010,10,10,08,46,10.40
2010,10,10,08,47,10.00
2010,10,10,08,48,14.30
2010,10,10,08,49,13.90
2010,10,10,08,50,11.60
2010,10,10,08,51,14.60
2010,10,10,08,52,11.10
2010,10,10,08,53,18.90
2010,10,10,08,54,11.00
2010,10,10,08,55,17.00
2010,10,10,08,56,13.50
2010,10,10,08,57,17.20
2010,10,10,08,58,12.30
2010,10,10,08,59,9.00
2010,10,10,09,00,10.40
2010,10,10,09,01,15.40
2010,10,10,09,02,13.60
2010,10,10,09,03,14.30
2010,10,10,09,04,15.40
2010,10,10,09,05,16.70
2010,10,10,09,06,11.60
2010,10,10,09,07,17.90
2010,10,10,09,08,14.20
2010,10,10,09,09,17.10
2010,10,10,09,10,17.40
2010,10,10,09,11,15.70
2010,10,10,09,12,17.70
2010,10,10,09,13,18.80
2010,10,10,09,14,15.50
2010,10,10,09,15,17.20
2010,10,10,09,16,18.50
2010,10,10,09,17,16.70
2010,10,10,09,18,14.30
2010,10,10,09,19,13.70
2010,10,10,09,20,12.20
2010,10,10,09,21,17.20
2010,10,10,09,22,14.20
2010,10,10,09,23,21.10
2010,10,10,09,24,16.70
2010,10,10,09,25,20.40
2010,10,10,09,26,18.40
2010,10,10,09,27,20.90
2010,10,10,09,28,16.30
2010,10,10,09,29,18.90
2010,10,10,09,30,17.80
2010,10,10,09,31,15.60
2010,10,10,09,32,19.90
2010,10,10,09,33,15.30
2010,10,10,09,34,16.80
2010,10,10,09,35,19.40
2010,10,10,09,36,16.10
2010,10,10,09,37,20.20
2010,10,10,09,38,16.20
2010,10,10,09,39,15.90
2010,10,10,09,40,18.50
2010,10,10,09,41,17.10
2010,10,10,09,42,15.30
2010,10,10,09,43,16.80
2010,10,10,09,44,19.50
2010,10,10,09,45,15.40
2010,10,10,09,46,22.80
2010,10,10,09,47,18.90
2010,10,10,09,48,18.90
2010,10,10,09,49,15.30
2010,10,10,09,50,19.90
2010,10,10,09,51,17.30
2010,10,10,09,52,19.60
2010,10,10,09,53,16.20
2010,10,10,09,54,16.40
2010,10,10,09,55,11.50
2010,10,10,09,56,15.30
2010,10,10,09,57,12.30
2010,10,10,09,58,16.90
2010,10,10,09,59,16.30
2010,10,10,10,00,20.20
2010,10,10,10,01,23.50
2010,10,10,10,02,17.60
2010,10,10,10,03,21.60
2010,10,10,10,04,23.70
2010,10,10,10,05,22.70
2010,10,10,10,06,19.90
2010,10,10,10,07,20.90
2010,10,10,10,08,21.70
2010,10,10,10,09,21.30
2010,10,10,10,10,23.20
2010,10,10,10,11,19.00
2010,10,10,10,12,17.60
2010,10,10,10,13,21.40
2010,10,10,10,14,20.70
2010,10,10,10,15,22.60
2010,10,10,10,16,19.40
2010,10,10,10,17,19.20
2010,10,10,10,18,20.60
2010,10,10,10,19,20.00
2010,10,10,10,20,20.70
2010,10,10,10,21,20.70
2010,10,10,10,22,12.00
2010,10,10,10,23,19.50
2010,10,10,10,24,22.50
2010,10,10,10,25,17.90
2010,10,10,10,26,18.50
2010,10,10,10,27,14.90
2010,10,10,10,28,20.80
2010,10,10,10,29,17.30
2010,10,10,10,30,17.80
2010,10,10,10,31,20.80
2010,10,10,10,32,21.10
2010,10,10,10,33,18.90
2010,10,10,10,34,16.80
2010,10,10,10,35,20.70
2010,10,10,10,36,23.60
2010,10,10,10,37,19.00
2010,10,10,10,38,20.50
2010,10,10,10,39,20.30
2010,10,10,10,40,21.30
2010,10,10,10,41,24.70
2010,10,10,10,42,15.10
2010,10,10,10,43,18.40
2010,10,10,10,44,14.80
2010,10,10,10,45,14.50
2010,10,10,10,46,17.30
2010,10,10,10,47,14.70
2010,10,10,10,48,13.80
2010,10,10,10,49,14.30
2010,10,10,10,50,13.00
2010,10,10,10,51,17.80
2010,10,10,10,52,13.90
2010,10,10,10,53,19.10
2010,10,10,10,54,19.80
2010,10,10,10,55,14.30
2010,10,10,10,56,22.50
2010,10,10,10,57,15.90
2010,10,10,10,58,13.20
2010,10,10,10,59,22.10
2010,10,10,11,00,20.00
2010,10,10,11,01,18.50
2010,10,10,11,02,15.30
2010,10,10,11,03,11.50
2010,10,10,11,04,17.20
2010,10,10,11,05,16.90
2010,10,10,11,06,11.10
2010,10,10,11,07,11.60
2010,10,10,11,08,10.10
2010,10,10,11,09,9.30
2010,10,10,11,10,14.50
2010,10,10,11,11,12.60
2010,10,10,11,12,9.20
2010,10,10,11,13,7.50
2010,10,10,11,14,16.20
2010,10,10,11,15,10.60
2010,10,10,11,16,14.70
2010,10,10,11,17,11.80
2010,10,10,11,18,5.40
2010,10,10,11,19,1.70
2010,10,10,11,20,6.70
2010,10,10,11,21,9.70
2010,10,10,11,22,7.10
2010,10,10,11,23,11.10
2010,10,10,11,24,7.30
2010,10,10,11,25,5.10
2010,10,10,11,26,1.10
2010,10,10,11,27,1.40
2010,10,10,11,28,2.50
2010,10,10,11,29,4.30
2010,10,10,11,30,1.20
2010,10,10,11,31,1.30
2010,10,10,11,32,7.60
2010,10,10,11,33,1.50
2010,10,10,11,34,0.10
2010,10,10,11,35,0.20
2010,10,10,11,36,1.30
2010,10,10,11,37,0.50
2010,10,10,11,38,5.60
2010,10,10,11,39,5.30
2010,10,10,11,40,4.60
2010,10,10,11,41,4.90
2010,10,10,11,42,7.10
2010,10,10,11,43,3.80
2010,10,10,11,44,4.30
2010,10,10,11,45,5.40
2010,10,10,11,46,3.10
2010,10,10,11,47,2.10
2010,10,10,11,48,3.50
2010,10,10,11,49,1.30
2010,10,10,11,50,2.00
2010,10,10,11,51,4.90
2010,10,10,11,52,7.30
2010,10,10,11,53,6.10
2010,10,10,11,54,3.50
2010,10,10,11,55,3.80
2010,10,10,11,56,3.30
2010,10,10,11,57,8.00
2010,10,10,11,58,4.90
2010,10,10,11,59,5.00
2010,10,10,12,00,0.80
2010,10,10,12,01,4.40
2010,10,10,12,02,7.10
2010,10,10,12,03,6.10
2010,10,10,12,04,9.40
2010,10,10,12,05,6.10
2010,10,10,12,06,4.10
2010,10,10,12,07,2.90
2010,10,10,12,08,7.10
2010,10,10,12,09,10.70
2010,10,10,12,10,6.70
2010,10,10,12,11,10.30
2010,10,10,12,12,9.30
2010,10,10,12,13,10.40
2010,10,10,12,14,9.00
2010,10,10,12,15,9.50
2010,10,10,12,16,13.00
2010,10,10,12,17,13.20
2010,10,10,12,18,6.40
2010,10,10,12,19,8.20
2010,10,10,12,20,8.10
2010,10,10,12,21,9.30
2010,10,10,12,22,7.30
2010,10,10,12,23,9.80
2010,10,10,12,24,13.50
2010,10,10,12,25,9.80
2010,10,10,12,26,2.80
2010,10,10,12,27,6.40
2010,10,10,12,28,2.80
2010,10,10,12,29,7.70
2010,10,10,12,30,10.50
2010,10,10,12,31,16.10
2010,10,10,12,32,17.80
2010,10,10,12,33,12.70
2010,10,10,12,34,16.20
2010,10,10,12,35,18.40
2010,10,10,12,36,9.20
2010,10,10,12,37,14.00
2010,10,10,12,38,11.90
2010,10,10,12,39,9.10
2010,10,10,12,40,13.90
2010,10,10,12,41,12.40
2010,10,10,12,42,8.50
2010,10,10,12,43,11.20
2010,10,10,12,44,9.30
2010,10,10,12,45,14.10
2010,10,10,12,46,8.40
2010,10,10,12,47,10.00
2010,10,10,12,48,14.30
2010,10,10,12,49,14.60
2010,10,10,12,50,12.60
2010,10,10,12,51,11.90
2010,10,10,12,52,12.00
2010,10,10,12,53,12.70
2010,10,10,12,54,12.90
2010,10,10,12,55,10.10
2010,10,10,12,56,14.40
2010,10,10,12,57,16.50
2010,10,10,12,58,7.20
2010,10,10,12,59,11.30
2010,10,10,13,00,16.00
2010,10,10,13,01,10.50
2010,10,10,13,02,15.40
2010,10,10,13,03,14.80
2010,10,10,13,04,11.20
2010,10,10,13,05,8.90
2010,10,10,13,06,11.30
2010,10,10,13,07,6.80
2010,10,10,13,08,11.30
2010,10,10,13,09,9.90
2010,10,10,13,10,13.60
2010,10,10,13,11,13.40
2010,10,10,13,12,15.90
2010,10,10,13,13,15.60
2010,10,10,13,14,13.90
2010,10,10,13,15,16.00
2010,10,10,13,16,12.70
2010,10,10,13,17,10.70
2010,10,10,13,18,9.30
2010,10,10,13,19,6.40
2010,10,10,13,20,3.70
2010,10,10,13,21,0.50
2010,10,10,13,22,5.90
2010,10,10,13,23,5.40
2010,10,10,13,24,5.70
2010,10,10,13,25,11.20
2010,10,10,13,26,15.30
2010,10,10,13,27,8.40
2010,10,10,13,28,7.00
2010,10,10,13,29,7.70
2010,10,10,13,30,9.70
2010,10,10,13,31,7.90
2010,10,10,13,32,6.40
2010,10,10,13,33,7.10
2010,10,10,13,34,9.00
2010,10,10,13,35,11.00
2010,10,10,13,36,7.30
2010,10,10,13,37,7.70
2010,10,10,13,38,6.50
2010,10,10,13,39,3.90
2010,10,10,13,40,9.40
2010,10,10,13,41,10.00
2010,10,10,13,42,10.10
2010,10,10,13,43,6.80
2010,10,10,13,44,5.90
2010,10,10,13,45,9.00
2010,10,10,13,46,7.70
2010,10,10,13,47,5.60
2010,10,10,13,48,9.90
2010,10,10,13,49,2.10
2010,10,10,13,50,6.70
2010,10,10,13,51,6.40
2010,10,10,13,52,7.50
2010,10,10,13,53,4.40
2010,10,10,13,54,7.70
2010,10,10,13,55,4.30
2010,10,10,13,56,8.80
2010,10,10,13,57,9.00
2010,10,10,13,58,5.10
2010,10,10,13,59,4.00
2010,10,10,14,00,6.90
2010,10,10,14,01,8.20
2010,10,10,14,02,8.30
2010,10,10,14,03,8.70
2010,10,10,14,04,6.30
2010,10,10,14,05,10.60
2010,10,10,14,06,10.00
2010,10,10,14,07,6.00
2010,10,10,14,08,11.30
2010,10,10,14,09,5.50
2010,10,10,14,10,7.40
2010,10,10,14,11,7.40
2010,10,10,14,12,5.20
2010,10,10,14,13,5.00
2010,10,10,14,14,9.40
2010,10,10,14,15,6.10
2010,10,10,14,16,8.70
2010,10,10,14,17,6.60
2010,10,10,14,18,6.80
2010,10,10,14,19,4.40
2010,10,10,14,20,8.70
2010,10,10,14,21,7.10
2010,10,10,14,22,8.90
2010,10,10,14,23,5.80
2010,10,10,14,24,5.90
2010,10,10,14,25,5.50
2010,10,10,14,26,2.90
2010,10,10,14,27,4.40
2010,10,10,14,28,13.90
2010,10,10,14,29,11.20
2010,10,10,14,30,5.50
2010,10,10,14,31,8.40
2010,10,10,14,32,8.60
2010,10,10,14,33,10.50
2010,10,10,14,34,9.30
2010,10,10,14,35,3.40
2010,10,10,14,36,9.40
2010,10,10,14,37,5.60
2010,10,10,14,38,4.40
2010,10,10,14,39,5.60
2010,10,10,14,40,8.90
2010,10,10,14,41,4.90
2010,10,10,14,42,14.50
2010,10,10,14,43,14.30
2010,10,10,14,44,12.00
2010,10,10,14,45,14.00
2010,10,10,14,46,14.30
2010,10,10,14,47,7.40
2010,10,10,14,48,10.90
2010,10,10,14,49,12.50
2010,10,10,14,50,14.70
2010,10,10,14,51,10.60
2010,10,10,14,52,12.30
2010,10,10,14,53,15.60
2010,10,10,14,54,13.60
2010,10,10,14,55,7.60
2010,10,10,14,56,11.10
2010,10,10,14,57,10.80
2010,10,10,14,58,15.90
2010,10,10,14,59,12.60
2010,10,10,15,00,20.00
2010,10,10,15,01,12.20
2010,10,10,15,02,17.50
2010,10,10,15,03,14.00
2010,10,10,15,04,17.30
2010,10,10,15,05,13.20
2010,10,10,15,06,12.60
2010,10,10,15,07,7.10
2010,10,10,15,08,10.10
2010,10,10,15,09,14.70
2010,10,10,15,10,13.90
2010,10,10,15,11,12.20
2010,10,10,15,12,12.50
2010,10,10,15,13,11.00
2010,10,10,15,14,11.70
2010,10,10,15,15,10.70
2010,10,10,15,16,12.40
2010,10,10,15,17,11.40
2010,10,10,15,18,11.20
2010,10,10,15,19,12.70
2010,10,10,15,20,11.80
2010,10,10,15,21,5.00
2010,10,10,15,22,9.00
2010,10,10,15,23,10.80
2010,10,10,15,24,9.20
2010,10,10,15,25,8.00
2010,10,10,15,26,9.00
2010,10,10,15,27,9.00
2010,10,10,15,28,7.70
2010,10,10,15,29,11.40
2010,10,10,15,30,9.80
2010,10,10,15,31,12.60
2010,10,10,15,32,10.30
2010,10,10,15,33,9.10
2010,10,10,15,34,7.90
2010,10,10,15,35,8.90
2010,10,10,15,36,10.90
2010,10,10,15,37,9.40
2010,10,10,15,38,6.40
2010,10,10,15,39,7.20
2010,10,10,15,40,10.80
2010,10,10,15,41,9.80
2010,10,10,15,42,6.10
2010,10,10,15,43,6.10
2010,10,10,15,44,13.50
2010,10,10,15,45,15.00
2010,10,10,15,46,11.60
2010,10,10,15,47,7.70
2010,10,10,15,48,12.50
2010,10,10,15,49,12.10
2010,10,10,15,50,12.00
2010,10,10,15,51,13.90
2010,10,10,15,52,11.00
2010,10,10,15,53,16.20
2010,10,10,15,54,11.40
2010,10,10,15,55,12.10
2010,10,10,15,56,12.90
2010,10,10,15,57,10.60
2010,10,10,15,58,10.50
2010,10,10,15,59,8.90
2010,10,10,16,00,9.90
2010,10,10,16,01,10.50
2010,10,10,16,02,9.10
2010,10,10,16,03,12.50
2010,10,10,16,04,8.40
2010,10,10,16,05,7.20
2010,10,10,16,06,6.10
2010,10,10,16,07,12.60
2010,10,10,16,08,16.50
2010,10,10,16,09,10.00
2010,10,10,16,10,7.30
2010,10,10,16,11,4.20
2010,10,10,16,12,7.50
2010,10,10,16,13,7.40
2010,10,10,16,14,8.90
2010,10,10,16,15,3.00
2010,10,10,16,16,7.80
2010,10,10,16,17,11.70
2010,10,10,16,18,7.90
2010,10,10,16,19,6.60
2010,10,10,16,20,7.80
2010,10,10,16,21,11.20
2010,10,10,16,22,6.00
2010,10,10,16,23,12.70
2010,10,10,16,24,16.20
2010,10,10,16,25,9.10
2010,10,10,16,26,9.70
2010,10,10,16,27,5.70
2010,10,10,16,28,5.10
2010,10,10,16,29,8.00
2010,10,10,16,30,7.40
2010,10,10,16,31,5.60
2010,10,10,16,32,10.90
2010,10,10,16,33,7.80
2010,10,10,16,34,8.00
2010,10,10,16,35,14.00
2010,10,10,16,36,8.60
2010,10,10,16,37,5.40
2010,10,10,16,38,6.20
2010,10,10,16,39,3.40
2010,10,10,16,40,4.60
2010,10,10,16,41,10.40
2010,10,10,16,42,6.70
2010,10,10,16,43,6.10
2010,10,10,16,44,8.90
2010,10,10,16,45,10.00
2010,10,10,16,46,7.40
2010,10,10,16,47,12.80
2010,10,10,16,48,9.80
2010,10,10,16,49,12.00
2010,10,10,16,50,8.00
2010,10,10,16,51,11.30
2010,10,10,16,52,8.40
2010,10,10,16,53,6.80
2010,10,10,16,54,6.00
2010,10,10,16,55,6.70
2010,10,10,16,56,8.40
2010,10,10,16,57,5.10
2010,10,10,16,58,3.30
2010,10,10,16,59,3.00
2010,10,10,17,00,6.20
2010,10,10,17,01,7.40
2010,10,10,17,02,8.30
2010,10,10,17,03,7.30
2010,10,10,17,04,9.00
2010,10,10,17,05,7.40
2010,10,10,17,06,6.40
2010,10,10,17,07,5.80
2010,10,10,17,08,3.80
2010,10,10,17,09,5.50
2010,10,10,17,10,8.00
2010,10,10,17,11,7.30
2010,10,10,17,12,8.70
2010,10,10,17,13,7.70
2010,10,10,17,14,6.00
2010,10,10,17,15,7.10
2010,10,10,17,16,5.90
2010,10,10,17,17,5.30
2010,10,10,17,18,4.30
2010,10,10,17,19,11.30
2010,10,10,17,20,3.60
2010,10,10,17,21,5.40
2010,10,10,17,22,6.40
2010,10,10,17,23,9.00
2010,10,10,17,24,6.10
2010,10,10,17,25,7.50
2010,10,10,17,26,5.30
2010,10,10,17,27,11.90
2010,10,10,17,28,12.10
2010,10,10,17,29,12.30
2010,10,10,17,30,10.40
2010,10,10,17,31,9.50
2010,10,10,17,32,13.30
2010,10,10,17,33,8.20
2010,10,10,17,34,10.40
2010,10,10,17,35,8.40
2010,10,10,17,36,10.00
2010,10,10,17,37,8.90
2010,10,10,17,38,6.10
2010,10,10,17,39,5.30
2010,10,10,17,40,10.70
2010,10,10,17,41,17.90
2010,10,10,17,42,10.10
2010,10,10,17,43,13.30
2010,10,10,17,44,15.30
2010,10,10,17,45,12.20